Hourly Weather Otverzhichi

Today, 1 August, Sunday

Time Temperature Precipitation Wind Pressure Humidity
00:00 +19°C° 0.1 mm 2 mps 745 mmHg 95%
01:00 +19°C° 0.1 mm 2 mps 745 mmHg 95%
02:00 +18°C° 0.1 mm 2 mps 745 mmHg 95%
03:00 +18°C° 0 mm 2 mps 745 mmHg 96%
04:00 +18°C° 0 mm 2 mps 745 mmHg 96%
05:00 +17°C° 0 mm 2 mps 745 mmHg 97%
06:00 +18°C° 0 mm 2 mps 745 mmHg 92%
07:00 +20°C° 0 mm 2 mps 745 mmHg 87%
08:00 +21°C° 0 mm 3 mps 745 mmHg 82%
09:00 +24°C° 0 mm 2 mps 745 mmHg 73%
10:00 +26°C° 0 mm 2 mps 745 mmHg 65%
11:00 +27°C° 0 mm 2 mps 745 mmHg 57%
12:00 +28°C° 0 mm 2 mps 745 mmHg 53%
13:00 +29°C° 0 mm 2 mps 745 mmHg 49%
14:00 +30°C° 0 mm 2 mps 745 mmHg 45%
15:00 +30°C° 0 mm 2 mps 744 mmHg 45%
16:00 +30°C° 0 mm 2 mps 744 mmHg 46%
17:00 +30°C° 0 mm 2 mps 744 mmHg 46%
18:00 +28°C° 0 mm 2 mps 743 mmHg 52%
19:00 +26°C° 0 mm 2 mps 743 mmHg 57%
20:00 +25°C° 0 mm 2 mps 743 mmHg 63%
21:00 +24°C° 0.1 mm 2 mps 743 mmHg 67%
22:00 +23°C° 0.1 mm 2 mps 743 mmHg 70%
23:00 +21°C° 0.1 mm 2 mps 743 mmHg 74%

Tomorrow, 2 August, Monday

Time Temperature Precipitation Wind Pressure Humidity
00:00 +21°C° 0.6 mm 2 mps 743 mmHg 81%
01:00 +20°C° 0.6 mm 2 mps 742 mmHg 88%
02:00 +19°C° 0.6 mm 2 mps 742 mmHg 95%
03:00 +19°C° 0.4 mm 2 mps 741 mmHg 95%
04:00 +20°C° 0.4 mm 1 mps 741 mmHg 96%
05:00 +20°C° 0.4 mm 1 mps 741 mmHg 96%
06:00 +21°C° 0 mm 1 mps 741 mmHg 92%
07:00 +21°C° 0 mm 2 mps 741 mmHg 88%
08:00 +23°C° 0 mm 2 mps 741 mmHg 84%
09:00 +24°C° 0 mm 3 mps 741 mmHg 77%
10:00 +25°C° 0 mm 4 mps 741 mmHg 71%
11:00 +27°C° 0 mm 5 mps 742 mmHg 64%
12:00 +24°C° 0.1 mm 6 mps 742 mmHg 67%
13:00 +23°C° 0.1 mm 6 mps 742 mmHg 71%
14:00 +22°C° 0.1 mm 7 mps 743 mmHg 74%
15:00 +21°C° 0 mm 7 mps 743 mmHg 71%
16:00 +21°C° 0 mm 6 mps 743 mmHg 68%
17:00 +21°C° 0 mm 6 mps 744 mmHg 65%
18:00 +20°C° 0 mm 5 mps 744 mmHg 69%
19:00 +19°C° 0 mm 4 mps 745 mmHg 74%
20:00 +18°C° 0 mm 3 mps 745 mmHg 79%
21:00 +17°C° 0 mm 3 mps 745 mmHg 82%
22:00 +17°C° 0 mm 3 mps 745 mmHg 84%
23:00 +16°C° 0 mm 2 mps 746 mmHg 87%

Day after tomorrow, 3 August, Tuesday

Time Temperature Precipitation Wind Pressure Humidity
00:00 +16°C° 0 mm 2 mps 746 mmHg 90%
01:00 +15°C° 0 mm 2 mps 746 mmHg 92%
02:00 +15°C° 0 mm 2 mps 746 mmHg 95%
03:00 +15°C° 0 mm 2 mps 746 mmHg 95%
04:00 +14°C° 0 mm 2 mps 747 mmHg 96%
05:00 +14°C° 0 mm 2 mps 747 mmHg 96%
06:00 +16°C° 0 mm 3 mps 747 mmHg 88%
07:00 +18°C° 0 mm 3 mps 748 mmHg 79%
08:00 +19°C° 0 mm 3 mps 748 mmHg 71%
09:00 +21°C° 0 mm 4 mps 748 mmHg 62%
10:00 +22°C° 0 mm 4 mps 748 mmHg 54%
11:00 +23°C° 0 mm 5 mps 748 mmHg 46%
12:00 +25°C° 0 mm 5 mps 748 mmHg 45%
13:00 +25°C° 0 mm 5 mps 748 mmHg 43%
14:00 +25°C° 0 mm 5 mps 748 mmHg 42%
15:00 +23°C° 0 mm 4 mps 748 mmHg 45%
16:00 +22°C° 0 mm 4 mps 749 mmHg 48%
17:00 +22°C° 0 mm 3 mps 749 mmHg 52%
18:00 +21°C° 0 mm 3 mps 749 mmHg 56%
19:00 +20°C° 0 mm 2 mps 749 mmHg 60%
20:00 +18°C° 0 mm 2 mps 749 mmHg 64%
21:00 +18°C° 0 mm 2 mps 749 mmHg 66%
22:00 +17°C° 0 mm 2 mps 750 mmHg 68%
23:00 +16°C° 0 mm 2 mps 750 mmHg 70%

4 August, Wednesday

Time Temperature Precipitation Wind Pressure Humidity
00:00 +16°C° 0 mm 2 mps 750 mmHg 72%
01:00 +15°C° 0 mm 1 mps 750 mmHg 74%
02:00 +14°C° 0 mm 1 mps 750 mmHg 76%
03:00 +14°C° 0 mm 1 mps 750 mmHg 77%
04:00 +14°C° 0 mm 1 mps 750 mmHg 78%
05:00 +14°C° 0 mm 1 mps 750 mmHg 79%
06:00 +16°C° 0 mm 1 mps 750 mmHg 72%
07:00 +19°C° 0 mm 1 mps 751 mmHg 66%
08:00 +21°C° 0 mm 1 mps 751 mmHg 59%
09:00 +22°C° 0 mm 1 mps 751 mmHg 53%
10:00 +24°C° 0 mm 1 mps 751 mmHg 48%
11:00 +26°C° 0 mm 1 mps 751 mmHg 42%
12:00 +26°C° 0 mm 1 mps 750 mmHg 41%
13:00 +27°C° 0 mm 1 mps 750 mmHg 40%
14:00 +28°C° 0 mm 1 mps 750 mmHg 39%
15:00 +27°C° 0 mm 2 mps 749 mmHg 45%
16:00 +26°C° 0 mm 2 mps 749 mmHg 50%
17:00 +25°C° 0 mm 3 mps 749 mmHg 55%
18:00 +23°C° 0.9 mm 2 mps 749 mmHg 66%
19:00 +21°C° 0.9 mm 2 mps 749 mmHg 76%
20:00 +19°C° 0.9 mm 2 mps 749 mmHg 86%
21:00 +18°C° 1.8 mm 2 mps 749 mmHg 90%
22:00 +18°C° 1.8 mm 3 mps 748 mmHg 93%
23:00 +17°C° 1.8 mm 3 mps 748 mmHg 96%

5 August, Thursday

Time Temperature Precipitation Wind Pressure Humidity
00:00 +17°C° 0.8 mm 3 mps 748 mmHg 96%
01:00 +17°C° 0.8 mm 3 mps 747 mmHg 96%
02:00 +17°C° 0.8 mm 2 mps 747 mmHg 96%
03:00 +17°C° 0.8 mm 3 mps 747 mmHg 96%
04:00 +17°C° 0.8 mm 3 mps 746 mmHg 96%
05:00 +17°C° 0.8 mm 3 mps 746 mmHg 96%
06:00 +18°C° 0.1 mm 3 mps 746 mmHg 94%
07:00 +19°C° 0.1 mm 3 mps 745 mmHg 91%
08:00 +20°C° 0.1 mm 3 mps 745 mmHg 89%
09:00 +22°C° 0 mm 3 mps 745 mmHg 81%
10:00 +25°C° 0 mm 2 mps 745 mmHg 73%
11:00 +27°C° 0 mm 2 mps 745 mmHg 65%
12:00 +27°C° 0 mm 2 mps 744 mmHg 61%
13:00 +28°C° 0 mm 2 mps 744 mmHg 57%
14:00 +29°C° 0 mm 2 mps 744 mmHg 52%
15:00 +29°C° 0 mm 2 mps 744 mmHg 54%
16:00 +29°C° 0 mm 2 mps 743 mmHg 56%
17:00 +28°C° 0 mm 2 mps 743 mmHg 58%
18:00 +26°C° 0.5 mm 2 mps 743 mmHg 68%
19:00 +24°C° 0.5 mm 2 mps 743 mmHg 79%
20:00 +21°C° 0.5 mm 2 mps 743 mmHg 89%
21:00 +20°C° 1.3 mm 2 mps 742 mmHg 92%
22:00 +20°C° 1.3 mm 2 mps 742 mmHg 94%
23:00 +20°C° 1.3 mm 1 mps 741 mmHg 97%

6 August, Friday

Time Temperature Precipitation Wind Pressure Humidity
00:00 +19°C° 1.2 mm 2 mps 741 mmHg 97%
01:00 +19°C° 1.2 mm 3 mps 741 mmHg 97%
02:00 +19°C° 1.2 mm 3 mps 740 mmHg 97%
03:00 +18°C° 0.9 mm 3 mps 740 mmHg 97%
04:00 +18°C° 0.9 mm 3 mps 740 mmHg 97%
05:00 +17°C° 0.9 mm 3 mps 740 mmHg 97%
06:00 +17°C° 2 mm 3 mps 741 mmHg 97%
07:00 +15°C° 2 mm 4 mps 741 mmHg 96%
08:00 +15°C° 2 mm 4 mps 742 mmHg 95%
09:00 +17°C° 0.1 mm 4 mps 742 mmHg 88%
10:00 +19°C° 0.1 mm 4 mps 743 mmHg 80%
11:00 +20°C° 0.1 mm 4 mps 743 mmHg 72%
12:00 +22°C° 0 mm 4 mps 743 mmHg 65%
13:00 +23°C° 0 mm 5 mps 743 mmHg 59%
14:00 +25°C° 0 mm 5 mps 744 mmHg 52%
15:00 +23°C° 0 mm 4 mps 744 mmHg 55%
16:00 +24°C° 0 mm 3 mps 744 mmHg 57%
17:00 +24°C° 0 mm 3 mps 744 mmHg 60%
18:00 +21°C° 0 mm 3 mps 744 mmHg 64%
19:00 +20°C° 0 mm 2 mps 744 mmHg 69%
20:00 +19°C° 0 mm 2 mps 744 mmHg 73%
21:00 +19°C° 0 mm 2 mps 744 mmHg 74%
22:00 +19°C° 0 mm 2 mps 744 mmHg 75%
23:00 +18°C° 0 mm 2 mps 745 mmHg 76%
Show more